Location: Clover
(42.5131°N, 114.6874°W)
Time: 13:24:19
(UTC+00:00)

Explorer 7 - Pass Details

Date: 13 December 2025
Orbit: 433 x 550 km, 50.2° (Epoch: 13 January)

Event Time Altitude Azimuth Distance (km) Brightness Sun altitude
Rises 01:15:03 0° 239° (WSW) 2,470 12.0 -12.3°
Reaches altitude 10° 01:17:13 10° 239° (WSW) 1,581 10.6 -12.7°
Maximum altitude 01:20:46 86° 326° (NW) 449 6.3 -13.3°
Enters shadow 01:22:42 25° 57° (ENE) 937 7.4 -13.6°
